Location: ???? ???? ?????
(31.2680°N, 31.7283°E)
Time: 04:37:53
(UTC+00:00)

Cosmos 773 Rocket - Pass Details

Date: 13 July 2020
Orbit: 746 x 776 km, 74.1° (Epoch: 11 August)

Event Time Altitude Azimuth Distance (km) Brightness Sun altitude
Rises 17:16:09 0° 190° (S) 3,237 7.0 -4.1°
Reaches altitude 10° 17:18:31 10° 188° (S) 2,314 6.3 -4.5°
Maximum altitude 17:23:46 74° 105° (ESE) 808 4.0 -5.5°
Drops below altitude 10° 17:29:02 10° 20° (NNE) 2,323 6.6 -6.5°
Sets 17:31:25 0° 19° (NNE) 3,250 7.4 -6.9°
